Location: Alsip
(41.6689°N, 87.7387°W)
Time: 15:18:16
(UTC+00:00)

Meteor 1-28 Rocket - Pass Details

Date: 14 July 2020
Orbit: 505 x 522 km, 97.3° (Epoch: 13 August)

Event Time Altitude Azimuth Distance (km) Brightness Sun altitude
Exits shadow 08:51:07 15° 169° (S) 1,451 5.1 -15.0°
Maximum altitude 08:54:11 85° 255° (WSW) 516 3.1 -14.6°
Drops below altitude 10° 08:57:56 10° 347° (NNW) 1,737 6.3 -14.2°
Sets 09:00:02 0° 348° (NNW) 2,631 7.3 -13.9°
